Other Surface Observations
Issued by NWS Tucson, AZ

Home | Current Version | Previous Version | Text Only | Print | Product List | Glossary On
Versions: 1 2 3 4 5 6 7 8 9 10 11 12 13 14 15 16 17 18 19 20 21 22 23 24 25 26 27 28 29 30 31 32 33 34 35 36 37 38 39 40 41 42 43 44 45 46 47 48 49 50
148
SXUS55 KTWC 221916
OSOTWC

WEATHER ROUNDUP FOR SOUTHEAST ARIZONA
NATIONAL WEATHER SERVICE TUCSON AZ
1215 PM MST FRI MAY 22 2015

AZZ504>506-514-222015-
LOCATION       SKY/WX    TMP DP  RH WIND       PRES   REMARKS
TUCSON         SUNNY     80  21  11 SW14G26   29.94F
DAVIS-MONTHAN  SUNNY     79  23  12 S16G23    29.92F
CHILDRENS PARK N/A       75  23  14 S7                PIMA CO DEQ
ALVERNON/22ND  N/A      N/A N/A N/A N/A               PIMA CO DEQ
CHERRY/GLENN   N/A      N/A N/A N/A N/A               PIMA CO DEQ
TANGERINE      N/A       76 N/A N/A S10               PIMA CO DEQ
CONTL RANCH    N/A       79  24  13 S9                PIMA CO DEQ
GRANT/1ST      N/A       77  22  13 S8                PIMA CO DEQ
CRAYCROFT/22ND N/A      N/A N/A N/A N/A               PIMA CO DEQ
GOLFLINKS/KOLB N/A      N/A N/A N/A N/A               PIMA CO DEQ
AJO/12TH       N/A       76  23  14 S15               PIMA CO DEQ
SAGUARO EAST   N/A      N/A N/A N/A N/A               PIMA CO DEQ
FAIRGROUNDS    N/A       75 N/A N/A SW14              PIMA CO DEQ
SAGUARO        N/A       78  21  12 SW7G14            *SABINO CYN
SAN CARLOS     N/A       78  25  14 S7G15             *SAN CARLOS
GREEN VALLEY   N/A       76  23  14 SW14              PIMA CO DEQ
HORSE CAMP CYN N/A       73  21  14 SW10G24           *ARAVAIPA CYN
RINCON MTNS    N/A        0   0   6 S3G14             *NR MANNING CAMP
$$

AZZ509>511-222015-
LOCATION       SKY/WX    TMP DP  RH WIND       PRES   REMARKS
SAFFORD        SUNNY     82  18   9 SW15G23   29.89F
STRAY HORSE    N/A       60  21  22 SE8G19            *
TRAIL CABIN    N/A       65  18  16 SE10G23           *N OF GRANVILLE
BLACK HILLS    N/A       79  20  11 S9G20             *N OF FT THOMAS
DRY LAKE       N/A       61  22  22 S10G21            *NATANES MTNS
NOON CREEK     N/A       71  19  14 SW15G26           *PINALENO MTNS
COLUMBINE      N/A       47   3  16 SE8G21            *PINALENO MTNS
GUTHRIE        N/A       66  19  16 SW13G26           *SW OF GUTHRIE
$$

AZZ502-503-513-222015-
LOCATION       SKY/WX    TMP DP  RH WIND       PRES   REMARKS
NOGALES        SUNNY     76  28  17 S14       29.99F
SELLS          N/A       75  29  18 SW14G24           *
SASABE         N/A       72  25  17 S20G29            *ALTAR VLY
HOPKINS        N/A       61  24  24 W10G25            *SANTA RITA MTNS
CARR CYN       N/A       70  20  15 N5G21             *W OF HEREFORD
$$

AZZ507-508-512-222015-
LOCATION       SKY/WX    TMP DP  RH WIND       PRES   REMARKS
SIERRA VISTA   MOSUNNY   75  18  11 S14G26    30.01F
DOUGLAS        SUNNY     79  16   9 S20G26    29.99F
EMPIRE MTNS    N/A       71  21  15 S17G30            *LAS CIENEGAS NCA
MULESHOE RANCH N/A       72  15  11 SW10G22           *PRESERVE
HEADQUARTERS   N/A       72  12  10 S6G17             *CHIRICAHUA MTNS
$$

.............................NOTES.............................
THIS IS AN AUTOMATED COLLECTIVE WITH MINIMAL QUALITY CONTROL.
PIMA CO DEQ SITES HAVE NONSTANDARD WIND SENSOR HEIGHTS.
PIMA CO DEQ SITES DO NOT REPORT WIND GUSTS.
* INDICATES WIND SENSORS LOCATED AT 20 FEET INSTEAD OF 33 FEET.
..............................KEY..............................
SKY/WX - SKY CONDITION/WEATHER
TMP    - TEMPERATURE IN FAHRENHEIT
DP     - DEWPOINT IN FAHRENHEIT
RH     - RELATIVE HUMIDITY IN PERCENT
WIND   - DIRECTION AND SPEED IN MILES PER HOUR (MPH)
VRB    - VARIABLE WIND DIRECTION
PRES   - MEAN SEA LEVEL PRESSURE IN INCHES OF MERCURY
         F - FALLING PRESSURE   R - RISING PRESSURE
         S - STEADY PRESSURE
VSB    - VISIBILITY IN MILES
HX     - HEAT INDEX IN FAHRENHEIT
WCI    - WIND CHILL INDEX IN FAHRENHEIT
N/A    - NOT AVAILABLE
AFB    - AIR FORCE BASE
         DAVIS-MONTHAN IS DAVIS-MONTHAN AIR FORCE BASE
CYN    - CANYON
MTNS   - MOUNTAINS
NCA    - NATIONAL CONSERVATION AREA
NR     - NEAR
VLY    - VALLEY
CONTL  - CONTINENTAL
PIMA CO DEQ - PIMA COUNTY DEPT OF ENVIRONMENTAL QUALITY



USA.gov is the U.S. government's official web portal to all federal, state and local government web resources and services.